Date,TemperatureHighF,TemperatureAvgF,TemperatureLowF,DewpointHighF,DewpointAvgF,DewpointLowF,HumidityHigh,HumidityAvg,HumidityLow,PressureMaxIn,PressureMinIn,WindSpeedMaxMPH,WindSpeedAvgMPH,GustSpeedMaxMPH,PrecipitationSumIn
2013-1-1,16,10,3,9,2,-4,83,71,45,0.00,40.00,6,3,15,0.01
2013-1-2,20,16,13,14,12,9,89,82,72,0.00,40.00,6,3,14,0.01
2013-1-3,24,19,16,18,12,8,88,76,60,0.00,40.00,8,4,17,0.01
2013-1-4,36,22,11,22,13,6,83,67,46,0.00,40.00,7,5,17,0.09
2013-1-5,37,22,12,20,15,9,90,76,47,0.00,40.00,6,2,12,0.13
2013-1-6,26,21,12,24,17,9,91,82,73,0.00,40.00,7,3,16,0.01
2013-1-7,38,27,15,21,16,7,87,63,47,0.00,40.00,9,6,22,0.10
2013-1-8,42,27,9,25,18,6,91,71,40,0.00,40.00,8,3,19,0.09
2013-1-9,34,30,19,27,22,13,89,73,62,0.00,40.00,11,6,27,0.01
2013-1-10,46,30,12,24,13,6,89,56,19,0.00,40.00,8,5,20,0.03
2013-1-11,40,36,33,38,34,29,96,93,86,0.00,40.00,8,4,19,0.06
2013-1-12,44,32,17,41,26,7,96,78,65,0.00,40.00,8,6,27,0.03
2013-1-13,17,14,9,7,5,3,79,69,59,0.00,40.00,6,4,13,0.02
2013-1-14,19,10,4,5,1,-3,79,67,48,0.00,40.00,5,4,15,0.02
2013-1-15,26,15,3,9,2,-4,73,57,32,0.00,40.00,8,5,19,0.01
2013-1-16,27,21,12,24,13,0,89,70,53,0.00,40.00,9,7,22,0.00
2013-1-17,10,4,0,3,-2,-5,78,75,70,0.00,40.00,7,4,18,0.00
2013-1-18,15,5,-11,10,0,-18,85,79,70,0.00,40.00,4,2,10,0.00
2013-1-19,32,18,6,29,15,0,91,86,79,0.00,40.00,10,4,24,0.01
2013-1-20,7,3,-4,0,-4,-11,80,74,69,0.00,40.00,9,5,22,0.01
2013-1-21,-4,-8,-13,-10,-16,-21,73,68,63,0.00,40.00,5,4,15,0.00
2013-1-22,-1,-10,-18,-10,-18,-26,71,67,64,0.00,40.00,4,2,9,0.00
2013-1-23,8,-4,-19,2,-11,-27,79,71,65,0.00,40.00,6,3,12,0.00
2013-1-24,6,-4,-17,-1,-11,-25,77,71,66,0.00,40.00,4,1,8,0.00
2013-1-25,20,12,5,15,7,-1,86,82,77,0.00,40.00,4,3,10,0.00
2013-1-26,21,16,11,14,12,7,87,83,69,0.00,40.00,5,2,10,0.00
2013-1-27,33,24,13,26,18,9,91,81,69,0.00,40.00,5,4,12,0.01
2013-1-28,36,30,27,30,28,25,96,91,79,0.00,40.00,5,2,12,0.01
2013-1-29,35,32,30,34,30,27,97,94,92,0.00,40.00,7,5,16,0.00
2013-1-30,29,19,10,27,15,6,91,84,80,0.00,40.00,7,5,19,0.00
2013-1-31,11,9,7,5,3,2,82,77,70,0.00,40.00,7,5,15,0.00
2013-2-1,7,0,-14,2,-9,-21,80,68,53,0.00,40.00,5,4,13,0.00
2013-2-2,10,-2,-20,0,-11,-28,76,66,58,0.00,40.00,5,2,10,0.00
2013-2-3,10,4,-3,3,-2,-9,80,76,68,0.00,40.00,7,4,17,0.00
2013-2-4,15,-2,-14,3,-10,-21,77,69,59,0.00,40.00,4,1,11,0.00
2013-2-5,20,9,-9,14,4,-16,84,79,72,0.00,40.00,7,2,14,0.00
2013-2-6,21,9,-9,14,3,-16,87,76,58,0.00,40.00,4,2,9,0.00
2013-2-7,23,18,15,19,14,8,89,86,78,0.00,40.00,7,4,18,0.00
2013-2-8,26,13,-1,11,4,-100,84,71,48,0.00,40.00,6,3,12,0.00
2013-2-9,36,18,7,22,11,3,84,73,56,0.00,40.00,7,4,17,0.00
2013-2-10,31,25,18,30,22,14,95,89,82,0.00,40.00,8,4,17,0.00
2013-2-11,31,26,19,30,24,16,97,92,86,0.00,40.00,7,4,19,0.00
2013-2-12,25,20,15,18,16,9,90,84,65,0.00,40.00,6,4,13,0.00
2013-2-13,44,26,10,29,21,7,90,80,52,0.00,40.00,4,2,10,0.00
2013-2-14,27,22,13,25,18,5,92,83,69,0.00,40.00,8,4,17,0.00
2013-2-15,17,11,3,9,5,-2,84,77,68,0.00,40.00,6,3,15,0.00
2013-2-16,15,4,-10,7,-4,-17,80,67,46,0.00,40.00,5,2,14,0.00
2013-2-17,28,9,-19,6,-5,-27,71,53,36,0.00,40.00,7,4,17,0.00
2013-2-18,38,27,18,26,18,6,94,69,56,0.00,40.00,8,5,19,0.00
2013-2-19,27,13,8,26,8,2,94,80,64,0.00,40.00,10,8,27,0.00
2013-2-20,16,8,-11,7,2,-18,80,76,67,0.00,40.00,8,6,18,0.00
2013-2-21,22,13,-7,17,9,-12,91,82,72,0.00,40.00,5,4,15,0.00
2013-2-22,26,22,18,22,19,15,91,88,81,0.00,40.00,5,4,13,0.00
2013-2-23,33,23,14,25,20,11,91,86,72,0.00,40.00,7,3,16,0.00
2013-2-24,33,25,17,23,19,15,92,79,60,0.00,40.00,4,2,10,0.00
2013-2-25,36,27,16,26,21,14,92,80,57,0.00,40.00,4,2,10,0.00
2013-2-26,42,30,20,26,23,18,94,77,46,0.00,40.00,7,4,17,0.00
2013-2-27,32,29,27,25,23,22,86,79,68,0.00,40.00,8,7,21,0.00
2013-2-28,29,24,18,23,17,9,84,75,64,0.00,40.00,8,6,20,0.00
2013-3-1,26,18,5,11,8,-1,82,67,41,0.00,40.00,7,5,16,0.00
2013-3-2,29,12,-3,9,3,-11,84,67,40,0.00,40.00,6,3,16,0.00
2013-3-3,33,9,-13,11,-4,-20,82,59,31,0.00,40.00,5,2,10,0.00
2013-3-4,36,15,-7,18,4,-13,82,65,34,0.00,40.00,7,3,16,0.00
2013-3-5,25,20,14,19,15,7,85,80,72,0.00,40.00,7,4,15,0.00
2013-3-6,26,22,16,21,17,11,93,82,64,0.00,40.00,6,3,13,0.00
2013-3-7,34,20,10,15,12,7,89,73,45,0.00,40.00,4,2,8,0.00
2013-3-8,45,27,11,19,14,7,88,61,31,0.00,40.00,7,4,14,0.00
2013-3-9,34,31,26,31,25,17,94,78,60,0.00,40.00,7,5,17,0.00
2013-3-10,33,32,28,32,28,22,97,88,77,0.00,40.00,8,5,20,0.00
2013-3-11,28,25,20,26,22,17,94,88,79,0.00,40.00,8,6,19,0.00
2013-3-12,20,18,16,17,14,11,89,83,70,0.00,40.00,7,4,15,0.00
2013-3-13,29,16,0,12,6,-5,86,69,44,0.00,40.00,7,3,16,0.00
2013-3-14,42,18,-6,25,6,-12,82,63,32,0.00,40.00,6,2,15,0.00
2013-3-15,32,24,11,28,13,0,87,63,39,0.00,40.00,7,5,15,0.00
2013-3-16,26,14,0,13,6,-5,85,70,47,0.00,40.00,8,4,20,0.00
2013-3-17,31,15,-3,2,-3,-9,76,48,23,0.00,40.00,7,4,16,0.00
2013-3-18,34,24,16,26,16,2,92,72,47,0.00,40.00,9,6,19,0.00
2013-3-19,25,20,17,23,15,12,93,83,70,0.00,40.00,10,6,23,0.00
2013-3-20,21,16,12,16,11,8,86,81,73,0.00,40.00,8,5,17,0.00
2013-3-21,22,16,0,14,12,-7,87,80,68,0.00,40.00,6,4,13,0.00
2013-3-22,32,19,-3,24,14,-9,89,79,66,0.00,40.00,5,2,12,0.00
2013-3-23,32,26,20,24,19,17,89,78,63,0.00,40.00,5,2,11,0.00
2013-3-24,31,25,17,24,19,11,87,76,59,0.00,40.00,6,3,14,0.00
2013-3-25,32,24,12,24,18,9,92,79,60,0.00,40.00,7,4,18,0.00
2013-3-26,37,30,24,29,24,19,94,79,58,0.00,40.00,6,4,15,0.00
2013-3-27,45,28,13,27,17,10,92,67,32,0.00,40.00,7,3,15,0.00
2013-3-28,49,38,23,22,18,14,75,47,30,0.00,40.00,5,3,12,0.00
2013-3-29,55,32,10,28,14,7,89,57,21,0.00,40.00,5,2,12,0.00
2013-3-30,39,33,23,37,29,16,97,85,54,0.00,40.00,6,3,15,0.00
2013-3-31,37,29,21,32,22,7,98,79,50,0.00,40.00,11,5,26,0.00
2013-4-1,28,21,17,14,8,4,85,58,38,0.00,40.00,9,6,20,0.00
2013-4-2,34,19,0,11,2,-5,82,52,25,0.00,40.00,9,4,21,0.00
2013-4-3,46,24,-2,14,2,-7,82,47,16,0.00,40.00,8,3,20,0.00
2013-4-4,46,38,24,30,21,8,79,51,34,0.00,40.00,10,6,23,0.00
2013-4-5,42,29,13,19,11,4,88,53,21,0.00,40.00,5,3,16,0.00
2013-4-6,35,31,28,32,26,13,97,82,52,0.00,40.00,9,5,19,0.00
2013-4-7,42,33,29,31,29,27,97,87,61,0.00,40.00,5,3,14,0.00
2013-4-8,38,34,31,35,32,28,97,93,87,0.00,40.00,4,3,11,0.00
2013-4-9,39,33,27,33,28,14,98,83,47,0.00,40.00,8,4,17,0.00
2013-4-10,43,33,23,25,16,8,87,53,24,0.00,40.00,8,5,20,0.00
2013-4-11,33,30,26,22,18,14,78,63,49,0.00,40.00,10,6,26,0.00
2013-4-12,34,28,26,26,24,20,93,85,70,0.00,40.00,8,6,22,0.00
2013-4-13,37,29,24,27,23,19,93,79,55,0.00,40.00,7,4,16,0.00
2013-4-14,46,31,12,30,22,9,96,72,38,0.00,40.00,7,3,17,0.00
2013-4-15,48,38,32,37,29,22,97,73,41,0.00,40.00,11,6,25,0.00
2013-4-16,46,37,29,30,26,21,84,66,44,0.00,40.00,8,5,17,0.00
2013-4-17,46,34,30,29,27,24,93,76,49,0.00,40.00,6,4,14,0.00
2013-4-18,33,32,30,32,30,28,96,95,91,0.00,40.00,8,5,19,0.09
2013-4-19,31,26,20,30,23,17,96,90,81,0.00,40.00,10,8,22,0.08
2013-4-20,33,22,6,21,16,2,90,78,57,0.00,40.00,7,3,17,0.02
2013-4-21,44,29,10,28,20,6,87,70,49,0.00,40.00,11,6,24,0.01
2013-4-22,52,39,31,36,30,22,97,75,35,0.00,40.00,7,5,20,0.01
2013-4-23,36,31,19,31,28,16,95,88,66,0.00,40.00,8,5,17,0.01
2013-4-24,51,31,9,28,18,5,92,64,27,0.00,40.00,7,2,16,0.02
2013-4-25,51,38,27,31,26,19,96,67,29,0.00,40.00,7,4,15,0.08
2013-4-26,64,43,25,38,30,22,93,64,31,0.00,40.00,8,4,17,0.36
2013-4-27,74,50,30,41,33,29,97,61,22,0.00,40.00,6,2,14,2.03
2013-4-28,72,54,37,43,39,32,94,61,30,0.00,40.00,8,4,18,2.15
2013-4-29,72,54,39,57,46,39,99,77,37,0.00,40.00,5,2,13,1.28
2013-4-30,77,57,41,57,50,39,99,79,49,0.00,40.00,9,4,21,0.11
2013-5-1,43,39,32,41,34,27,97,83,68,0.00,40.00,6,3,14,0.01
2013-5-2,32,30,28,31,28,26,97,93,87,0.00,40.00,7,5,16,0.03
2013-5-3,34,29,27,30,27,25,96,92,86,0.00,40.00,6,5,15,0.13
2013-5-4,56,39,30,43,34,29,97,84,58,0.00,40.00,6,3,12,0.33
2013-5-5,61,43,33,41,35,29,97,77,47,0.00,40.00,6,3,11,0.04
2013-5-6,74,49,26,42,35,25,96,66,28,0.00,40.00,6,2,12,0.00
2013-5-7,78,54,33,53,36,28,98,62,16,0.00,40.00,8,2,16,0.00
2013-5-8,80,60,38,47,38,35,95,54,20,0.00,40.00,5,2,13,0.00
2013-5-9,54,40,34,40,35,27,96,82,54,0.00,40.00,7,5,18,0.29
2013-5-10,54,42,30,28,23,13,83,52,21,0.00,40.00,7,5,17,0.01
2013-5-11,41,35,31,33,28,19,96,75,50,0.00,40.00,9,6,24,0.16
2013-5-12,43,33,25,30,24,15,96,70,35,0.00,40.00,9,6,22,0.30
2013-5-13,58,40,17,27,18,13,91,50,18,0.00,40.00,8,3,16,0.02
2013-5-14,74,55,40,43,36,26,70,50,31,0.00,40.00,8,5,18,0.00
2013-5-15,74,64,51,46,39,32,69,42,24,0.00,40.00,11,7,26,0.00
2013-5-16,68,49,33,41,13,-100,95,50,20,0.00,40.00,7,4,15,0.00
2013-5-17,73,48,35,40,34,-100,92,65,26,0.00,40.00,7,3,15,0.00
2013-5-18,66,55,49,59,49,39,96,80,62,0.00,40.00,7,4,14,0.46
2013-5-19,80,62,51,61,53,47,92,74,51,0.00,40.00,9,5,17,0.01
2013-5-20,71,54,45,54,48,44,99,83,52,0.00,40.00,7,5,16,0.12
2013-5-21,63,46,41,58,45,40,99,96,76,0.00,40.00,7,5,16,1.68
2013-5-22,46,43,41,45,43,39,99,98,96,0.00,40.00,7,5,20,1.06
2013-5-23,51,40,30,39,30,24,93,71,38,0.00,40.00,7,5,17,0.17
2013-5-24,67,44,22,38,27,20,95,60,23,0.00,40.00,5,2,18,0.01
2013-5-25,68,52,35,38,32,26,89,50,26,0.00,40.00,7,4,15,0.00
2013-5-26,73,53,32,36,29,21,86,45,15,0.00,40.00,7,4,16,0.00
2013-5-27,71,55,35,35,31,28,81,46,23,0.00,40.00,8,4,18,0.00
2013-5-28,65,56,50,52,43,34,86,62,48,0.00,40.00,6,3,12,0.00
2013-5-29,81,64,51,60,53,48,97,72,34,0.00,40.00,6,3,13,0.01
2013-5-30,87,70,59,66,62,52,99,79,39,0.00,40.00,10,5,22,0.47
2013-5-31,85,69,56,64,57,45,98,70,32,0.00,40.00,10,6,23,0.30
2013-6-1,68,56,39,58,51,38,98,86,64,0.00,40.00,7,4,15,0.29
2013-6-2,55,44,35,38,35,31,97,77,41,0.00,40.00,9,5,17,0.09
2013-6-3,61,44,27,38,28,21,96,62,21,0.00,40.00,8,3,19,0.01
2013-6-4,67,48,28,45,32,25,97,62,22,0.00,40.00,6,2,11,0.00
2013-6-5,54,49,44,47,44,40,98,84,72,0.00,40.00,5,3,13,0.41
2013-6-6,56,50,45,49,45,42,98,86,59,0.00,40.00,6,4,12,0.53
2013-6-7,72,53,32,45,38,31,97,65,28,0.00,40.00,5,2,13,0.01
2013-6-8,74,58,43,50,44,40,96,65,33,0.00,40.00,5,2,13,0.00
2013-6-9,71,56,40,55,47,39,98,76,43,0.00,40.00,7,3,17,0.01
2013-6-10,76,67,56,61,56,51,94,70,50,0.00,40.00,6,3,12,0.01
2013-6-11,77,64,50,62,53,44,99,73,34,0.00,40.00,7,3,14,0.00
2013-6-12,80,62,40,57,45,39,98,63,29,0.00,40.00,6,2,14,0.00
2013-6-13,68,58,47,51,48,43,94,73,52,0.00,40.00,6,4,17,0.00
2013-6-14,76,54,34,54,39,33,97,67,26,0.00,40.00,7,2,12,0.00
2013-6-15,67,59,46,63,56,40,98,88,63,0.00,40.00,4,2,9,0.17
2013-6-16,78,64,48,60,52,45,99,71,33,0.00,40.00,8,4,25,0.08
2013-6-17,60,51,38,53,48,33,99,91,57,0.00,40.00,6,3,11,0.21
2013-6-18,74,52,29,52,35,28,97,61,28,0.00,40.00,5,2,13,0.03
2013-6-19,79,61,40,51,44,38,96,59,31,0.00,40.00,6,3,16,0.00
2013-6-20,72,60,49,66,56,48,98,86,65,0.00,40.00,4,1,8,0.07
2013-6-22,70,65,59,62,61,58,97,88,75,0.00,40.00,7,3,20,0.00
2013-6-23,86,71,60,69,64,59,99,81,54,0.00,40.00,10,4,21,0.10
2013-6-24,87,72,58,66,60,55,99,70,38,0.00,40.00,7,3,14,0.01
2013-6-25,90,72,54,70,59,52,99,71,28,0.00,40.00,4,2,11,0.00
2013-6-26,83,64,55,71,61,54,99,90,67,0.00,40.00,7,2,27,0.39
2013-6-27,84,70,58,69,61,56,99,78,40,0.00,40.00,6,3,15,0.40
2013-6-28,74,62,57,65,60,56,99,92,65,0.00,40.00,5,2,13,0.23
2013-6-29,71,60,48,58,54,45,99,82,48,0.00,40.00,8,4,15,0.23
2013-6-30,81,62,35,56,45,34,98,62,27,0.00,40.00,7,3,14,0.02
2013-7-1,74,59,43,56,47,37,98,70,38,0.00,40.00,7,3,16,0.00
2013-7-2,79,56,32,53,40,31,97,66,27,0.00,40.00,6,2,12,0.00
2013-7-3,84,62,40,60,46,39,98,65,26,0.00,40.00,5,2,13,0.00
2013-7-4,85,69,52,61,55,51,99,68,34,0.00,40.00,6,3,14,0.00
2013-7-5,88,75,57,62,57,53,96,56,30,0.00,40.00,8,5,19,0.00
2013-7-6,91,76,69,69,60,56,93,59,39,0.00,40.00,8,5,19,0.01
2013-7-7,83,72,62,71,67,59,99,84,61,0.00,40.00,5,3,18,0.85
2013-7-8,79,64,56,67,61,56,99,91,67,0.00,40.00,5,3,12,0.20
2013-7-9,81,66,55,72,65,55,100,95,72,0.00,40.00,6,2,16,0.01
2013-7-10,72,62,52,62,52,-100,100,76,49,0.00,40.00,8,5,23,0.00
2013-7-11,83,64,44,61,52,44,100,73,33,0.00,40.00,5,2,13,0.00
2013-7-12,85,69,53,63,58,53,100,73,43,0.00,40.00,8,4,21,0.00
2013-7-13,85,72,64,67,61,56,88,69,50,0.00,40.00,6,4,12,0.00
2013-7-14,88,74,63,68,64,60,100,75,43,0.00,40.00,6,3,14,0.00
2013-7-15,89,68,57,71,62,57,100,85,44,0.00,40.00,6,2,14,0.00
2013-7-16,93,84,72,75,71,67,94,67,49,0.00,40.00,7,3,16,0.07
2013-7-17,89,78,66,73,69,66,100,77,52,0.00,40.00,6,3,16,0.06
2013-7-18,91,76,65,77,70,63,100,84,52,0.00,40.00,8,3,19,0.12
2013-7-19,78,71,56,72,62,55,99,76,51,0.00,40.00,10,5,25,0.38
2013-7-20,69,60,46,61,47,-100,100,68,42,0.00,40.00,6,3,14,0.36
2013-7-21,75,56,36,57,48,36,100,78,48,0.00,40.00,5,2,13,0.00
2013-7-22,82,64,51,71,58,51,100,85,58,0.00,40.00,8,4,20,0.07
2013-7-23,66,58,46,54,48,44,99,71,48,0.00,40.00,8,5,20,0.03
2013-7-24,74,55,37,57,48,37,100,81,45,0.00,40.00,4,2,11,0.00
2013-7-25,79,61,47,66,58,47,100,89,58,0.00,40.00,6,2,15,0.02
2013-7-26,67,55,46,61,54,45,100,96,82,0.00,40.00,7,3,16,0.01
2013-7-27,55,49,44,50,47,44,100,92,76,0.00,40.00,5,4,12,0.00
2013-7-28,51,48,44,50,48,43,100,98,95,0.00,40.00,7,5,16,0.00
2013-7-29,74,57,38,56,49,38,100,80,44,0.00,40.00,4,2,10,0.00
2013-7-30,72,61,48,64,56,48,100,85,58,0.00,40.00,7,2,13,0.00
2013-7-31,78,64,52,66,58,49,100,83,51,0.00,40.00,7,3,13,0.00
2013-8-1,73,57,45,58,51,45,100,85,48,0.00,40.00,6,2,16,0.00
2013-8-2,71,61,48,59,54,48,100,81,51,0.00,40.00,7,3,15,0.00
2013-8-3,69,58,45,58,52,45,100,81,58,0.00,40.00,7,3,16,0.00
2013-8-4,72,56,38,55,47,38,100,75,40,0.00,40.00,4,2,10,0.00
2013-8-5,64,55,43,63,54,43,100,98,91,0.00,40.00,5,2,10,0.04
2013-8-6,76,65,56,68,61,56,100,88,67,0.00,40.00,5,2,14,0.01
2013-8-7,69,60,47,60,55,44,100,86,42,0.00,40.00,7,3,15,0.05
2013-8-8,70,57,39,60,52,39,100,86,59,0.00,40.00,4,1,9,0.03
2013-8-9,68,58,47,59,52,45,100,81,54,0.00,40.00,8,3,17,0.01
2013-8-10,73,59,40,58,49,40,100,76,46,0.00,40.00,5,2,12,0.00
2013-8-11,58,46,42,58,46,42,100,100,100,0.00,40.00,1,0,3,0.00
2013-9-17,71,52,30,48,39,30,99,69,32,0.00,40.00,8,4,16,0.00
2013-9-18,62,54,52,61,52,48,97,91,86,0.00,40.00,6,4,15,0.00
2013-9-19,81,69,63,71,65,62,99,90,68,0.00,40.00,7,4,16,0.02
2013-9-20,67,60,48,64,57,45,99,90,65,0.00,40.00,8,4,19,0.02
2013-9-21,48,45,35,47,41,34,100,87,68,0.00,40.00,6,4,15,0.01
2013-9-22,61,47,36,42,38,34,99,76,44,0.00,40.00,5,2,11,0.00
2013-9-23,70,52,39,49,43,37,94,75,47,0.00,40.00,7,5,15,0.00
2013-9-24,74,54,38,53,47,37,99,79,44,0.00,40.00,6,3,12,0.00
2013-9-25,76,54,37,56,46,37,99,80,35,0.00,40.00,5,2,11,0.00
2013-9-26,76,53,34,51,45,34,99,77,34,0.00,40.00,7,3,13,0.00
2013-9-27,82,64,46,53,50,44,92,63,32,0.00,40.00,10,6,22,0.00
2013-9-28,77,64,51,57,51,43,96,65,44,0.00,40.00,13,7,29,0.00
2013-9-29,72,53,35,50,42,34,98,74,27,0.00,40.00,6,3,14,0.00
2013-9-30,73,60,42,46,43,40,99,58,33,0.00,40.00,10,6,25,0.00
2013-10-3,57,52,48,52,49,43,99,90,73,0.00,40.00,6,3,14,0.01
2013-10-4,59,53,50,52,50,46,96,88,71,0.00,40.00,7,5,18,0.01
2013-10-5,52,50,48,51,48,47,99,96,89,0.00,40.00,7,5,15,0.00
2013-10-6,56,51,47,54,50,46,100,98,92,0.00,40.00,6,3,12,0.00
2013-10-7,55,46,32,46,41,32,99,86,57,0.00,40.00,7,4,18,0.01
2013-10-8,73,54,29,45,39,29,99,63,33,0.00,40.00,10,6,21,0.01
2013-10-9,73,64,51,49,45,41,79,51,36,0.00,40.00,9,6,19,0.00
2013-10-17,51,37,24,43,34,23,97,89,66,0.00,40.00,4,1,10,0.00
2013-10-18,43,39,28,42,38,27,99,95,82,0.00,40.00,6,2,13,0.00
2013-10-19,49,35,27,39,32,26,98,90,48,0.00,40.00,5,2,14,0.00
2013-10-20,43,35,31,37,34,31,99,94,73,0.00,40.00,4,2,11,0.00
2013-10-21,33,32,29,32,29,24,99,91,77,0.00,40.00,6,4,18,0.00
2013-10-22,39,33,30,34,31,27,98,92,73,0.00,40.00,7,4,17,0.02
2013-10-23,36,31,27,32,28,26,98,89,67,0.00,40.00,6,3,15,0.02
2013-10-24,40,33,29,37,30,28,98,92,75,0.00,40.00,5,2,15,0.00
2013-10-25,40,35,28,34,30,27,98,84,66,0.00,40.00,9,4,19,0.00
2013-10-26,42,37,31,38,30,24,97,79,60,0.00,40.00,8,5,21,0.00
2013-10-27,46,36,30,34,30,27,95,80,50,0.00,40.00,7,3,19,0.00
2013-10-28,36,29,16,29,18,-100,92,68,49,0.00,40.00,6,3,19,0.05
2013-10-29,36,25,13,30,21,10,96,84,55,0.00,40.00,5,2,12,0.05
2013-10-30,46,38,32,45,37,31,99,97,94,0.00,40.00,5,2,11,0.18
2013-10-31,51,48,45,50,47,42,100,99,97,0.00,40.00,6,2,12,0.49
2013-11-1,43,39,35,42,38,34,99,97,93,0.00,40.00,6,4,16,0.30
2013-11-2,42,35,30,36,32,29,99,90,69,0.00,40.00,4,2,9,0.03
2013-11-3,42,36,28,33,30,27,97,79,58,0.00,40.00,11,5,20,0.00
2013-11-4,48,44,41,42,37,33,95,76,63,0.00,40.00,9,8,22,0.01
2013-11-5,50,40,28,38,30,25,94,68,37,0.00,40.00,6,3,17,0.03
2013-11-6,34,32,29,32,30,25,98,92,81,0.00,40.00,6,3,15,0.03
2013-11-7,34,30,28,30,27,25,95,90,79,0.00,40.00,5,3,10,0.04
2013-11-8,40,32,20,28,25,18,96,78,52,0.00,40.00,7,3,18,0.34
2013-11-9,35,34,33,34,32,29,98,96,84,0.00,40.00,7,5,17,0.37
2013-11-10,37,33,31,32,30,27,97,89,71,0.00,40.00,7,4,21,0.39
2013-11-11,33,23,19,31,18,13,97,82,69,0.00,40.00,8,6,21,0.01
2013-11-12,27,21,16,16,13,5,88,74,46,0.00,40.00,6,4,16,0.06
2013-11-13,50,36,15,29,22,7,72,58,41,0.00,40.00,8,6,21,0.33
2013-11-14,44,36,27,31,30,26,97,78,59,0.00,40.00,4,2,11,0.11
2013-11-15,53,38,27,37,32,26,98,81,51,0.00,40.00,6,3,14,0.00
2013-11-16,47,40,34,46,36,31,99,86,72,0.00,40.00,8,5,20,0.72
2013-11-17,47,43,34,47,41,28,99,94,78,0.00,40.00,12,5,26,0.09
2013-11-18,33,27,24,27,22,16,93,79,68,0.00,40.00,10,8,29,0.02
2013-11-19,37,29,20,21,17,15,90,61,41,0.00,40.00,8,5,19,0.19
2013-11-20,39,35,32,30,23,19,94,63,47,0.00,40.00,9,7,22,0.01
2013-11-21,35,32,25,34,30,23,98,96,91,0.00,40.00,6,3,15,0.10
2013-11-22,32,24,16,23,17,10,92,78,51,0.00,40.00,7,5,20,0.14
2013-11-23,15,10,7,11,5,2,86,79,71,0.00,40.00,8,5,17,0.01
2013-11-24,20,13,8,8,4,1,84,70,54,0.00,40.00,9,5,21,0.00
2013-11-25,33,28,21,28,21,10,92,74,63,0.00,40.00,8,6,19,0.01
2013-11-26,28,17,11,23,12,7,86,79,66,0.00,40.00,8,5,20,0.01
2013-11-27,25,16,8,15,10,3,89,80,55,0.00,40.00,5,2,10,0.07
2013-11-28,26,18,12,18,13,9,88,80,62,0.00,40.00,4,1,7,0.01
2013-11-29,26,19,-1,21,14,-6,90,80,74,0.00,40.00,6,3,15,0.01
2013-11-30,33,27,22,25,21,16,92,78,67,0.00,40.00,5,3,14,0.03
2013-12-1,30,28,25,28,26,24,96,94,89,0.00,40.00,4,1,9,0.01
2013-12-2,32,28,24,24,24,23,95,84,71,0.00,40.00,5,2,14,0.00
2013-12-3,29,26,24,25,22,20,92,86,74,0.00,40.00,7,5,15,0.00
2013-12-12,13,2,-14,4,-6,-21,82,70,60,0.00,40.00,6,4,13,0.00
2013-12-13,12,3,-6,5,-5,-12,83,70,46,0.00,40.00,5,2,15,0.00
2013-12-14,17,7,-6,8,1,-12,85,77,64,0.00,40.00,5,2,9,0.00
2013-12-15,12,8,-1,7,4,-7,85,80,72,0.00,40.00,7,4,16,0.00
2013-12-16,12,4,-19,6,-2,-27,83,75,65,0.00,40.00,5,3,13,0.00
2013-12-17,25,14,3,21,10,-2,89,85,79,0.00,40.00,7,4,16,0.00
2013-12-18,21,12,4,10,6,-2,84,76,61,0.00,40.00,6,3,13,0.00
2013-12-19,21,14,2,19,10,-2,91,81,70,0.00,40.00,7,4,16,0.00
2013-12-20,21,14,4,13,9,-1,88,82,72,0.00,40.00,3,2,8,0.00
2013-12-21,27,18,13,18,14,10,92,84,66,0.00,40.00,4,1,8,0.00
2013-12-22,24,20,14,20,16,10,93,87,78,0.00,40.00,6,4,15,0.00
2013-12-23,15,11,2,10,6,-3,85,78,67,0.00,40.00,5,3,12,0.00
2013-12-24,21,10,-1,7,1,-6,81,70,50,0.00,40.00,7,3,15,0.00
2013-12-25,18,12,9,10,6,3,86,78,66,0.00,40.00,6,4,15,0.00
2013-12-26,14,10,1,11,4,-4,87,78,69,0.00,40.00,4,2,11,0.00
2013-12-28,35,30,19,30,27,17,95,90,79,0.00,40.00,8,3,20,0.00
2013-12-29,18,5,-7,15,-1,-13,89,76,63,0.00,40.00,8,5,19,0.00
2013-12-30,6,-6,-14,-6,-15,-22,72,66,53,0.00,40.00,5,3,10,0.00
2013-12-31,2,-7,-13,-7,-14,-20,74,70,64,0.00,40.00,7,4,17,0.00
2014-1-1,3,-4,-16,-6,-12,-24,74,69,61,0.00,40.00,3,1,6,0.00
2014-1-2,5,-6,-16,-4,-14,-23,73,68,62,0.00,40.00,4,1,9,0.00